Simultaneous Nadir Overpasses (SNOs) Predictions

Prediction of SNOs between METOP-B and NOAA-19 Satellite Orbit:

Table of predicted SNOs for the next 14.0 days since TLE Epoch: 9/4/2021
Index Date (METOP-B) Time (METOP-B) Lat,Lon (METOP-B) SZA (METOP-B ) Date (NOAA-19) Time (NOAA-19) Lat,Lon (NOAA-19) SZA (NOAA-19 ) Distance(km) Time Diff (sec)
1 09/08/2021 07:20:16 80.61, 99.76 76.32 09/08/2021 07:19:05 80.63, 99.78 76.31 2.04 71
2 09/08/2021 08:10:57 -80.61, -92.96 103.68 09/08/2021 08:10:04 -80.62, -92.86 103.68 2.76 53
3 09/08/2021 09:01:37 80.62, 74.62 76.37 09/08/2021 09:01:04 80.61, 74.73 76.36 2.32 33
4 09/08/2021 09:52:18 -80.62,-118.10 103.63 09/08/2021 09:52:04 -80.62,-118.27 103.65 3.00 14
5 09/08/2021 10:42:59 80.61, 49.14 76.38 09/08/2021 10:43:05 80.62, 48.97 76.37 3.26 6
6 09/08/2021 11:33:40 -80.61,-143.58 103.62 09/08/2021 11:34:04 -80.62,-143.68 103.61 1.99 24
7 09/08/2021 12:24:21 80.60, 23.66 76.39 09/08/2021 12:25:05 80.62, 23.56 76.41 2.36 44



Historial Predications of SNOs between METOP-B and NOAA-19
